Канкунский

Россия / Республика Саха (Якутия)     57°37′18″N   126°01′39″E
темп.,
°C
ветер,
м/с
пор.,
м/с
влажн.,
%
обл.,
%
осадки,
мм/ч
давл.,
гПа
погр.,
м
3 марта, ср
ср300:00−32вюв22100100 0.1 102324
03:00−32вюв22100100 0.1 102220
06:00−33вюв22100100 0.1 102119
09:00−31юв12100100 0.1 102028
12:00−28ю229499 0.0 1017249
15:00−26зюз1286100 0.1 1015412
18:00−31ссз229694 0.0 101719
21:00−32ссз239476 0.0 101919
4 марта, чт
чт400:00−33с3496100 0.0 102119
03:00−35с4496100 0.0 102222
06:00−36с449797 0.0 102423
09:00−35ссз349594 0.0 102669
12:00−31ссз698590 0.0 1026706
15:00−30сз698495 0.0 1027877
18:00−32сз51091100 0.0 1029344
21:00−34сз4792100 0.1 1032194
5 марта, пт
пт500:00−35сз3693100 0.0 1033180
03:00−35сз3595100 0.1 1035186
06:00−35сз3695100 0.1 1036174
09:00−34сз41090100 0.1 1037632
12:00−31сз61186100 0.0 1036676
15:00−29сз6986100 0.0 1035702
18:00−32зсз2398100 0.0 103619
21:00−35сз2299100 0.0 103819
6 марта, сб
сб600:00−36сз1210087 0.0 103719
03:00−38з1110051 0.0 103719
06:00−38юз111000 0.0 103619
09:00−33юз11890 0.0 103521
12:00−28ююз22770 0.0 1030159
15:00−25юз22760 0.0 1027210
18:00−29юз01900 0.0 102619
21:00−30ю11909 0.0 102719
7 марта, вс
вс700:00−26ююз119299 0.0 102521
03:00−25ю1110098 0.1 102522
06:00−25ююз12100100 0.2 102421
09:00−23юз2298100 0.3 102389
12:00−20юз3394100 0.1 1021238
15:00−17юз3390100 0.3 1020374
18:00−18ю2399100 0.2 102022
21:00−19ю22100100 0.5 102224